Location: Shot Rock
(38.6247°N, 120.1956°W)
Time: 03:35:49
(UTC-08:00)

Envisat - Visible Passes

Search period start: 10 December 2018 00:00
Search period end: 20 December 2018 00:00
Orbit: 764 x 766 km, 98.2° (Epoch: 10 December)

Date Brightness Start Highest point End Pass type
(mag) Time Alt. Az. Time Alt. Az. Time Alt. Az.
10 Dec 2.8 18:43:29 10° SSE 18:48:32 73° ENE 18:53:35 10° N visible
10 Dec 5.9 20:26:24 10° WSW 20:28:02 11° W 20:29:42 10° WNW visible
11 Dec 3.6 18:07:30 10° SE 18:11:58 32° ENE 18:16:26 10° N visible
11 Dec 4.9 19:46:42 10° SSW 19:50:57 27° W 19:55:15 10° NW visible
12 Dec 6.2 06:19:44 10° ENE 06:21:34 12° E 06:23:24 10° ESE visible
12 Dec 4.5 17:32:46 10° E 17:35:36 15° ENE 17:38:26 10° NNE visible
12 Dec 3.3 19:09:03 10° S 19:14:04 63° W 19:19:06 10° NNW visible
13 Dec 2.9 18:32:25 10° SSE 18:37:22 57° ENE 18:42:19 10° N visible
13 Dec 5.7 20:13:52 10° SW 20:16:43 15° W 20:19:36 10° WNW visible
14 Dec 3.9 17:56:44 10° ESE 18:00:52 26° ENE 18:04:59 10° NNE visible
14 Dec 4.4 19:35:07 10° SSW 19:39:42 34° W 19:44:19 10° NNW visible
15 Dec 4.7 17:22:43 10° E 17:24:33 12° ENE 17:26:24 10° NE visible
15 Dec 3.0 18:57:48 10° S 19:02:51 80° WSW 19:07:57 10° NNW visible
16 Dec 3.2 18:21:26 10° SE 18:26:13 45° ENE 18:31:02 10° N visible
16 Dec 5.4 20:01:50 10° SW 20:05:26 19° W 20:09:02 10° NW visible
17 Dec 5.9 06:32:48 10° NE 06:36:05 17° E 06:39:21 10° SE visible
17 Dec 4.1 17:46:05 10° ESE 17:49:46 21° ENE 17:53:28 10° NNE visible
17 Dec 4.0 19:23:38 10° S 19:28:27 44° W 19:33:18 10° NNW visible
18 Dec 2.8 18:46:37 10° SSE 18:51:40 80° ENE 18:56:45 10° N visible
18 Dec 6.1 20:30:43 10° W 20:31:15 10° W 20:31:47 10° W visible
19 Dec 3.5 18:10:31 10° SE 18:15:05 35° ENE 18:19:40 10° N visible
19 Dec 5.0 19:50:02 10° SSW 19:54:08 25° W 19:58:16 10° NW visible
